When you browse on this site, cookies collect data to enhance your experience and personalize the content and advertising you see.
Visit our Privacy Policy to learn more. By continuing to use the site, you agree to this use of cookies and data.
  • In Slovakia
  • List of Countries
  • For 7 days
  • Water Temperature
  • Weather Map
  • Weather Widgets
  • user-avatar
    Login

    Hourly Weather Mendoza

    Today, 31 May, Sunday

    Time Temperature Precipitation Wind Pressure Humidity
    00:00 +6°C° 0 mm 1 mps 702 mmHg 62%
    01:00 +5°C° 0 mm 1 mps 702 mmHg 62%
    02:00 +5°C° 0 mm 1 mps 701 mmHg 64%
    03:00 +5°C° 0 mm 1 mps 701 mmHg 65%
    04:00 +4°C° 0 mm 0 mps 700 mmHg 66%
    05:00 +4°C° 0 mm 0 mps 701 mmHg 64%
    06:00 +4°C° 0 mm 0 mps 701 mmHg 62%
    07:00 +5°C° 0 mm 0 mps 701 mmHg 60%
    08:00 +8°C° 0 mm 1 mps 701 mmHg 53%
    09:00 +9°C° 0 mm 2 mps 702 mmHg 45%
    10:00 +12°C° 0 mm 2 mps 702 mmHg 38%
    11:00 +13°C° 0 mm 2 mps 701 mmHg 36%
    12:00 +13°C° 0 mm 3 mps 701 mmHg 35%
    13:00 +14°C° 0 mm 3 mps 700 mmHg 33%
    14:00 +13°C° 0 mm 3 mps 700 mmHg 34%
    15:00 +13°C° 0 mm 3 mps 700 mmHg 35%
    16:00 +13°C° 0 mm 3 mps 700 mmHg 36%
    17:00 +13°C° 0 mm 2 mps 700 mmHg 39%
    18:00 +12°C° 0 mm 2 mps 701 mmHg 42%
    19:00 +10°C° 0 mm 2 mps 701 mmHg 45%
    20:00 +9°C° 0 mm 2 mps 701 mmHg 46%
    21:00 +10°C° 0 mm 1 mps 701 mmHg 46%
    22:00 +9°C° 0 mm 1 mps 701 mmHg 47%
    23:00 +9°C° 0 mm 1 mps 701 mmHg 48%

    Tomorrow, 1 June, Monday

    Time Temperature Precipitation Wind Pressure Humidity
    00:00 +8°C° 0 mm 1 mps 701 mmHg 49%
    01:00 +7°C° 0 mm 0 mps 701 mmHg 51%
    02:00 +7°C° 0 mm 1 mps 700 mmHg 51%
    03:00 +7°C° 0 mm 1 mps 700 mmHg 50%
    04:00 +7°C° 0 mm 1 mps 700 mmHg 50%
    05:00 +7°C° 0 mm 1 mps 700 mmHg 50%
    06:00 +7°C° 0 mm 1 mps 701 mmHg 49%
    07:00 +8°C° 0 mm 1 mps 701 mmHg 49%
    08:00 +10°C° 0 mm 1 mps 701 mmHg 43%
    09:00 +12°C° 0 mm 2 mps 701 mmHg 38%
    10:00 +14°C° 0 mm 2 mps 702 mmHg 32%
    11:00 +15°C° 0 mm 2 mps 701 mmHg 31%
    12:00 +16°C° 0 mm 2 mps 701 mmHg 30%
    13:00 +17°C° 0 mm 3 mps 700 mmHg 28%
    14:00 +17°C° 0 mm 2 mps 700 mmHg 29%
    15:00 +17°C° 0 mm 2 mps 700 mmHg 31%
    16:00 +16°C° 0 mm 2 mps 700 mmHg 32%
    17:00 +15°C° 0 mm 2 mps 700 mmHg 35%
    18:00 +14°C° 0 mm 1 mps 700 mmHg 39%
    19:00 +12°C° 0 mm 1 mps 700 mmHg 42%
    20:00 +12°C° 0 mm 1 mps 700 mmHg 43%
    21:00 +11°C° 0 mm 1 mps 700 mmHg 45%
    22:00 +11°C° 0 mm 1 mps 700 mmHg 46%
    23:00 +10°C° 0 mm 1 mps 700 mmHg 47%

    Day after tomorrow, 2 June, Tuesday

    Time Temperature Precipitation Wind Pressure Humidity
    00:00 +10°C° 0 mm 1 mps 700 mmHg 49%
    01:00 +9°C° 0 mm 1 mps 699 mmHg 50%
    02:00 +9°C° 0 mm 1 mps 699 mmHg 51%
    03:00 +9°C° 0 mm 1 mps 699 mmHg 52%
    04:00 +9°C° 0 mm 1 mps 698 mmHg 53%
    05:00 +8°C° 0 mm 1 mps 698 mmHg 55%
    06:00 +8°C° 0 mm 1 mps 698 mmHg 57%
    07:00 +8°C° 0 mm 1 mps 698 mmHg 58%
    08:00 +10°C° 0 mm 1 mps 698 mmHg 51%
    09:00 +12°C° 0 mm 1 mps 698 mmHg 44%
    10:00 +14°C° 0 mm 1 mps 698 mmHg 36%
    11:00 +15°C° 0 mm 2 mps 697 mmHg 34%
    12:00 +17°C° 0 mm 2 mps 696 mmHg 32%
    13:00 +18°C° 0 mm 3 mps 696 mmHg 30%
    14:00 +17°C° 0 mm 2 mps 695 mmHg 30%
    15:00 +17°C° 0 mm 2 mps 695 mmHg 31%
    16:00 +17°C° 0 mm 2 mps 694 mmHg 31%
    17:00 +16°C° 0 mm 1 mps 694 mmHg 35%
    18:00 +14°C° 0 mm 1 mps 693 mmHg 39%
    19:00 +13°C° 0 mm 1 mps 693 mmHg 42%
    20:00 +12°C° 0 mm 1 mps 693 mmHg 45%
    21:00 +12°C° 0 mm 2 mps 692 mmHg 48%
    22:00 +10°C° 0 mm 2 mps 692 mmHg 50%
    23:00 +10°C° 0 mm 2 mps 691 mmHg 52%

    3 June, Wednesday

    Time Temperature Precipitation Wind Pressure Humidity
    00:00 +9°C° 0 mm 2 mps 691 mmHg 53%
    01:00 +9°C° 0 mm 3 mps 691 mmHg 54%
    02:00 +9°C° 0 mm 3 mps 691 mmHg 56%
    03:00 +7°C° 0 mm 4 mps 691 mmHg 57%
    04:00 +7°C° 0 mm 5 mps 691 mmHg 58%
    05:00 +7°C° 0 mm 6 mps 692 mmHg 62%
    06:00 +6°C° 0 mm 7 mps 693 mmHg 66%
    07:00 +5°C° 0 mm 8 mps 694 mmHg 70%
    08:00 +6°C° 0 mm 8 mps 694 mmHg 67%
    09:00 +7°C° 0 mm 8 mps 695 mmHg 64%
    10:00 +9°C° 0 mm 7 mps 695 mmHg 62%
    11:00 +9°C° 0.1 mm 7 mps 695 mmHg 64%
    12:00 +8°C° 0.1 mm 7 mps 695 mmHg 67%
    13:00 +8°C° 0.1 mm 7 mps 695 mmHg 70%
    14:00 +6°C° 1.2 mm 8 mps 696 mmHg 75%
    15:00 +5°C° 1.2 mm 8 mps 696 mmHg 80%
    16:00 +3°C° 1.2 mm 9 mps 697 mmHg 85%
    17:00 +3°C° 1.5 mm 9 mps 697 mmHg 85%
    18:00 +3°C° 1.5 mm 9 mps 698 mmHg 84%
    19:00 +3°C° 1.5 mm 10 mps 699 mmHg 83%
    20:00 +3°C° 2.1 mm 9 mps 700 mmHg 84%
    21:00 +3°C° 2.1 mm 9 mps 700 mmHg 85%
    22:00 +3°C° 2.1 mm 9 mps 700 mmHg 86%
    23:00 +4°C° 0.7 mm 8 mps 700 mmHg 83%

    4 June, Thursday

    Time Temperature Precipitation Wind Pressure Humidity
    00:00 +4°C° 0.7 mm 7 mps 701 mmHg 81%
    01:00 +5°C° 0.7 mm 6 mps 701 mmHg 78%
    02:00 +5°C° 0.5 mm 6 mps 701 mmHg 78%
    03:00 +5°C° 0.5 mm 6 mps 701 mmHg 78%
    04:00 +5°C° 0.5 mm 6 mps 701 mmHg 78%
    05:00 +6°C° 0.1 mm 5 mps 701 mmHg 75%
    06:00 +6°C° 0.1 mm 5 mps 701 mmHg 72%
    07:00 +6°C° 0.1 mm 5 mps 701 mmHg 69%
    08:00 +7°C° 0 mm 5 mps 702 mmHg 70%
    09:00 +7°C° 0 mm 5 mps 702 mmHg 70%
    10:00 +8°C° 0 mm 6 mps 702 mmHg 70%
    11:00 +8°C° 0 mm 5 mps 701 mmHg 69%
    12:00 +9°C° 0 mm 5 mps 701 mmHg 67%
    13:00 +9°C° 0 mm 5 mps 700 mmHg 66%
    14:00 +10°C° 0 mm 4 mps 700 mmHg 69%
    15:00 +8°C° 0 mm 4 mps 700 mmHg 73%
    16:00 +8°C° 0 mm 4 mps 700 mmHg 76%
    17:00 +8°C° 0 mm 3 mps 701 mmHg 79%
    18:00 +8°C° 0 mm 2 mps 701 mmHg 83%
    19:00 +8°C° 0 mm 1 mps 701 mmHg 86%
    20:00 +8°C° 0 mm 1 mps 701 mmHg 86%
    21:00 +8°C° 0 mm 1 mps 701 mmHg 85%
    22:00 +8°C° 0 mm 1 mps 702 mmHg 85%
    23:00 +7°C° 0 mm 1 mps 701 mmHg 83%

    5 June, Friday

    Time Temperature Precipitation Wind Pressure Humidity
    00:00 +7°C° 0 mm 1 mps 701 mmHg 81%
    01:00 +7°C° 0 mm 1 mps 701 mmHg 79%
    02:00 +7°C° 0 mm 1 mps 701 mmHg 78%
    03:00 +6°C° 0 mm 1 mps 700 mmHg 77%
    04:00 +6°C° 0 mm 1 mps 700 mmHg 75%
    05:00 +6°C° 0 mm 1 mps 700 mmHg 75%
    06:00 +6°C° 0 mm 1 mps 700 mmHg 74%
    07:00 +7°C° 0 mm 1 mps 700 mmHg 74%
    08:00 +8°C° 0 mm 1 mps 700 mmHg 69%
    09:00 +10°C° 0 mm 1 mps 700 mmHg 65%
    10:00 +12°C° 0 mm 1 mps 701 mmHg 60%
    11:00 +13°C° 0 mm 1 mps 700 mmHg 55%
    12:00 +14°C° 0 mm 1 mps 700 mmHg 51%
    13:00 +15°C° 0 mm 2 mps 699 mmHg 46%
    14:00 +14°C° 0 mm 2 mps 699 mmHg 46%
    15:00 +14°C° 0 mm 2 mps 699 mmHg 46%
    16:00 +14°C° 0 mm 2 mps 699 mmHg 46%
    17:00 +13°C° 0 mm 2 mps 699 mmHg 46%
    18:00 +12°C° 0 mm 2 mps 699 mmHg 46%
    19:00 +10°C° 0 mm 2 mps 699 mmHg 46%
    20:00 +10°C° 0 mm 2 mps 699 mmHg 48%
    21:00 +9°C° 0 mm 2 mps 699 mmHg 49%
    22:00 +9°C° 0 mm 2 mps 699 mmHg 51%
    23:00 +9°C° 0 mm 2 mps 698 mmHg 52%
    Show more